Regional Weather Roundup
Issued by NWS Northern Indiana

Home | Current Version | Previous Version | Graphics & Text | Print | Product List | Glossary On
Versions: 1 2 3 4 5 6 7 8 9 10 11 12 13 14 15 16 17 18 19 20 21 22 23 24 25 26 27 28 29 30 31 32 33 34 35 36 37 38 39 40 41 42 43 44 45 46 47 48 49 50
516
ASUS43 KIWX 191500
RWRIWX

KIWX WEATHER ROUNDUP
NATIONAL WEATHER SERVICE NORTHERN INDIANA
1000 AM EST SUN NOV 19 2017

NOTE: "FAIR" INDICATES FEW OR NO CLOUDS BELOW 12,000 FEET WITH NO
SIGNIFICANT WEATHER AND/OR OBSTRUCTIONS TO VISIBILITY.

* THESE STATIONS ARE NOT UNDER NWS QUALITY CONTROL. THEY ALSO MAY NOT
  REPORT WEATHER SUCH AS PRECIPITATION OR FOG.

INZ001>027-191600-
NORTHERN INDIANA

CITY           SKY/WX    TMP DP  RH WIND       PRES   REMARKS
GARY*          PTSUNNY   32  19  59 W17       30.03R WCI  21
LAPORTE*       CLOUDY    32  23  69 NW8       29.99R WCI  25
KNOX*          CLOUDY    32  25  74 W12G17    30.00R WCI  23
SOUTH BEND     CLOUDY    33  26  75 W15       29.96R WCI  23
GOSHEN         CLOUDY    34  24  67 W14       29.95R WCI  25
MONTICELLO*    CLOUDY    31  24  74 NW15G21   30.03R WCI  21
WARSAW*        CLOUDY    32  27  80 W14       29.96R WCI  22
AUBURN*        CLOUDY    36  30  80 W15G22    29.93R
FORT WAYNE     CLOUDY    37  29  72 NW14      29.95R
PERU/GRISSOM   CLOUDY    33  27  77 W20       30.00R WCI  21

$$
INZ028>050-191600-
CENTRAL INDIANA

CITY           SKY/WX    TMP DP  RH WIND       PRES   REMARKS
LAFAYETTE      CLOUDY    30  23  75 W15G24    30.06R WCI  19
KOKOMO*        LGT RAIN  32  28  85 W24       30.01R WCI  19
MUNCIE*        CLOUDY    36  29  75 W14       29.99R
INDIANAPOLIS   PTSUNNY   34  26  72 W16       30.05R WCI  24

$$
MIZ043>046-050>051-056>058-064>065-071>073-077>080-191600-
SOUTHWEST LOWER MICHIGAN

CITY           SKY/WX    TMP DP  RH WIND       PRES   REMARKS
BATTLE CREEK   FLURRIES  33  26  75 NW14G22   29.89R WCI  23
BENTON HARBOR  CLOUDY    34  21  59 NW13G20   29.96R WCI  25
COLDWATER*     CLOUDY    35  26  70 W10       29.90R WCI  27
HILLSDALE*     CLOUDY    34  28  80 W13G22    29.86R WCI  25
HOLLAND        CLOUDY    34  22  61 NW12      29.92R WCI  25
GRAND RAPIDS   FLURRIES  33  27  78 NW14      29.89R WCI  23
KALAMAZOO      CLOUDY    34  23  64 W16       29.91R WCI  24
THREE RIVERS*  FLURRIES  36  28  72 NW12      29.92R

$$
OHZ001>008-015>018-024>025-191600-
NORTHWEST OHIO

CITY           SKY/WX    TMP DP  RH WIND       PRES   REMARKS
DEFIANCE       CLOUDY    38  29  70 W12G18    29.91R
FINDLAY        LGT SNOW  37  30  75 W12       29.88R
TOLEDO EXPRESS CLOUDY    37  33  85 W10       29.88R
TOLEDO METCALF CLOUDY    38  30  73 W13G21    29.88R

$$
AND FOR LAKE MICHIGAN COASTAL AND OPEN LAKE BUOY OBSERVATIONS

STATION/POSITION TEMP    WIND        PRES    VSBY  WAVE
                 AIR SEA DIR/SP/G                  HT/PER
                 (F)     (DEG/KT/KT) (MB)    (MI)  (FT/S)
MICHIGAN CITY     33     280/ 19/ 21   N/A
BURNS HARBOR      33     280/ 19/ 22 1016.3R
SAINT JOSEPH      36     300/ 16/ 20 1014.2
SOUTH LAKE BUOY   33 49  330/ 21/ 27 1014.2          6/ 7

$$
&&




USA.gov is the U.S. government's official web portal to all federal, state and local government web resources and services.